Date String (YYYY-MM-DD hh:mm:ss) UTC,Instrument flags,absolute air pressure of the measurement (hPa),sample flow rate (lpm),inlet stack bypass flow (lpm),air temperature of the measurement (°C),ambient temperature measured by the external sensor (°C),aerosol sample conditioner tube jacket temperature (°C),OPC LED temperature (°C),internal box temperature (°C),relative humidity of the measurement (%),span deviation,mass concentration of particles derived from Lorenz-Mie calculation of OPC scattering (μg/m³),mass concentration of particles derived from Lorenz-Mie calculation of OPC scattering (μg/m³),mass concentration of particles derived from Lorenz-Mie calculation of OPC scattering (μg/m³)
DateTimeUTC,F1_M11,P_M11,Q1_M11,Q2_M11,T1_M11,T2_M11,T3_M11,T4_M11,T5_M11,U1_M11,ZSPAN_M11,X0_M11,X2_M11,X1_M11
2024-04-27 20:00:00,SystemResetWarning,0824.4,5.00,000.00,021.3,020.6,000.0,029.8,023.1,027.3,0000.0,0003.72,0002.77,0002.35
2024-04-27 20:01:00,SystemResetWarning,0824.5,5.00,000.00,021.3,020.6,000.0,029.8,023.1,027.3,0000.0,0003.75,0002.79,0002.37
2024-04-27 20:02:00,SystemResetWarning,0824.5,4.99,000.00,021.3,020.6,000.0,029.8,023.1,027.4,0000.0,0003.81,0002.87,0002.42
2024-04-27 20:03:00,SystemResetWarning,0824.4,4.99,000.00,021.3,020.6,000.0,029.8,023.1,027.4,0000.0,0003.86,0002.91,0002.46
2024-04-27 20:04:00,SystemResetWarning,0824.5,5.00,000.00,021.3,020.6,000.0,029.8,023.1,027.2,0000.0,0003.80,0002.92,0002.51
2024-04-27 20:05:00,SystemResetWarning,0824.4,5.00,000.00,021.3,020.6,000.0,029.8,023.1,027.2,0000.0,0003.87,0002.98,0002.55
2024-04-27 20:06:00,SystemResetWarning,0824.4,5.00,000.00,021.3,020.6,000.0,029.8,023.1,027.0,0000.0,0003.90,0003.01,0002.59
2024-04-27 20:07:00,SystemResetWarning,0824.4,5.00,000.00,021.3,020.6,000.0,029.8,023.1,026.9,0000.0,0003.91,0003.04,0002.63
2024-04-27 20:08:00,SystemResetWarning,0824.4,5.01,000.00,021.3,020.6,000.0,029.8,023.1,026.8,0000.0,0003.94,0003.06,0002.66
2024-04-27 20:09:00,SystemResetWarning,0824.5,5.01,000.00,021.3,020.6,000.0,029.8,023.1,026.9,0000.0,0003.97,0003.08,0002.68
2024-04-27 20:10:00,SystemResetWarning,0824.4,5.00,000.00,021.3,020.6,000.0,029.8,023.1,026.9,0000.0,0004.04,0003.11,0002.70
2024-04-27 20:11:00,SystemResetWarning,0824.4,4.99,000.00,021.3,020.6,000.0,029.8,023.1,026.7,0000.0,0004.06,0003.11,0002.71
2024-04-27 20:12:00,SystemResetWarning,0824.4,4.99,000.00,021.3,020.6,000.0,029.8,023.1,026.7,0000.0,0004.10,0003.10,0002.69
2024-04-27 20:13:00,SystemResetWarning,0824.4,5.01,000.00,021.3,020.6,000.0,029.8,023.1,026.5,0000.0,0003.93,0003.02,0002.64
2024-04-27 20:14:00,SystemResetWarning,0824.5,5.01,000.00,021.3,020.6,000.0,029.8,023.1,026.4,0000.0,0003.84,0002.93,0002.55
2024-04-27 20:15:00,SystemResetWarning,0824.4,4.99,000.00,021.3,020.6,000.0,029.8,023.1,026.6,0000.0,0003.77,0002.85,0002.45
2024-04-27 20:16:00,SystemResetWarning,0824.4,4.99,000.00,021.3,020.6,000.0,029.8,023.1,026.6,0000.0,0003.63,0002.73,0002.35
2024-04-27 20:17:00,SystemResetWarning,0824.4,4.99,000.00,021.3,020.6,000.0,029.8,023.1,027.0,0000.0,0003.46,0002.60,0002.25
2024-04-27 20:18:00,SystemResetWarning,0824.4,5.01,000.00,021.3,020.6,000.0,029.8,023.1,027.3,0000.0,0003.35,0002.49,0002.15
2024-04-27 20:19:00,SystemResetWarning,0824.4,5.01,000.00,021.3,020.6,000.0,029.8,023.1,026.8,0000.0,0003.17,0002.36,0002.04
2024-04-27 20:20:00,SystemResetWarning,0824.4,4.99,000.00,021.3,020.6,000.0,029.8,023.1,026.6,0000.0,0003.02,0002.24,0001.93
2024-04-27 20:21:00,SystemResetWarning,0824.4,4.99,000.00,021.3,020.6,000.0,029.8,023.1,026.8,0000.0,0002.86,0002.12,0001.83
2024-04-27 20:22:00,SystemResetWarning,0824.4,5.01,000.00,021.3,020.6,000.0,029.8,023.1,026.8,0000.0,0002.68,0002.01,0001.73
2024-04-27 20:23:00,SystemResetWarning,0824.4,5.01,000.00,021.3,020.6,000.0,029.8,023.1,026.8,0000.0,0002.48,0001.91,0001.65
2024-04-27 20:24:00,SystemResetWarning,0824.4,4.98,000.00,021.3,020.6,000.0,029.8,023.1,026.8,0000.0,0002.41,0001.86,0001.57
2024-04-27 20:25:00,SystemResetWarning,0824.5,4.99,000.00,021.3,020.6,000.0,029.8,023.1,026.7,0000.0,0002.31,0001.79,0001.53
2024-04-27 20:26:00,SystemResetWarning,0824.4,5.01,000.00,021.3,020.6,000.0,029.8,023.1,026.9,0000.0,0002.41,0001.76,0001.51
2024-04-27 20:27:00,SystemResetWarning,0824.4,5.01,000.00,021.3,020.6,000.0,029.8,023.1,027.1,0000.0,0002.37,0001.75,0001.51
2024-04-27 20:28:00,SystemResetWarning,0824.5,5.01,000.00,021.3,020.6,000.0,029.8,023.1,026.9,0000.0,0002.33,0001.72,0001.48
2024-04-27 20:29:00,SystemResetWarning,0824.4,5.00,000.00,021.3,020.6,000.0,029.8,023.1,026.9,0000.0,0002.38,0001.73,0001.47
2024-04-27 20:30:00,SystemResetWarning,0824.5,4.99,000.00,021.3,020.6,000.0,029.8,023.1,026.8,0000.0,0002.40,0001.75,0001.48
2024-04-27 20:31:00,SystemResetWarning,0824.5,5.00,000.00,021.3,020.6,000.0,029.8,023.1,026.9,0000.0,0002.39,0001.74,0001.48
2024-04-27 20:32:00,SystemResetWarning,0824.4,4.99,000.00,021.3,020.6,000.0,029.8,023.1,027.0,0000.0,0002.40,0001.75,0001.49
2024-04-27 20:33:00,SystemResetWarning,0824.5,5.00,000.00,021.3,020.6,000.0,029.8,023.1,026.6,0000.0,0002.41,0001.74,0001.48
2024-04-27 20:34:00,SystemResetWarning,0824.5,4.99,000.00,021.3,020.6,000.0,029.8,023.1,026.3,0000.0,0002.53,0001.74,0001.48
2024-04-27 20:35:00,SystemResetWarning,0824.5,5.00,000.00,021.3,020.6,000.0,029.8,023.1,026.2,0000.0,0002.56,0001.72,0001.49
2024-04-27 20:36:00,SystemResetWarning,0824.5,5.00,000.00,021.3,020.6,000.0,029.8,023.1,026.1,0000.0,0002.52,0001.72,0001.50
2024-04-27 20:37:00,SystemResetWarning,0824.6,5.01,000.00,021.3,020.6,000.0,029.8,023.1,026.3,0000.0,0002.31,0001.70,0001.51
2024-04-27 20:38:00,SystemResetWarning,0824.5,5.01,000.00,021.3,020.6,000.0,029.8,023.1,026.4,0000.0,0002.27,0001.68,0001.51
2024-04-27 20:39:00,SystemResetWarning,0824.5,5.00,000.00,021.3,020.6,000.0,029.8,023.1,026.4,0000.0,0002.31,0001.68,0001.51
2024-04-27 20:40:00,SystemResetWarning,0824.5,5.01,000.00,021.3,020.6,000.0,029.8,023.1,026.4,0000.0,0002.38,0001.70,0001.49
2024-04-27 20:41:00,SystemResetWarning,0824.5,5.00,000.00,021.3,020.6,000.0,029.8,023.1,026.1,0000.0,0002.39,0001.65,0001.46
2024-04-27 20:42:00,SystemResetWarning,0824.5,5.00,000.00,021.3,020.6,000.0,029.8,023.1,025.9,0000.0,0002.38,0001.63,0001.44
2024-04-27 20:43:00,SystemResetWarning,0824.5,5.00,000.00,021.3,020.7,000.0,029.8,023.1,026.2,0000.0,0002.37,0001.63,0001.43
2024-04-27 20:44:00,SystemResetWarning,0824.5,5.00,000.00,021.3,020.7,000.0,029.8,023.1,026.3,0000.0,0002.36,0001.63,0001.42
2024-04-27 20:45:00,SystemResetWarning,0824.5,4.99,000.00,021.3,020.7,000.0,029.8,023.1,026.4,0000.0,0002.24,0001.60,0001.42
2024-04-27 20:46:00,SystemResetWarning,0824.5,5.00,000.00,021.3,020.7,000.0,029.8,023.1,026.6,0000.0,0002.13,0001.60,0001.42
2024-04-27 20:47:00,SystemResetWarning,0824.4,5.00,000.00,021.3,020.7,000.0,029.8,023.1,026.4,0000.0,0002.32,0001.62,0001.41
2024-04-27 20:48:00,SystemResetWarning,0824.4,5.00,000.00,021.3,020.7,000.0,029.8,023.1,026.7,0000.0,0002.29,0001.59,0001.38
2024-04-27 20:49:00,SystemResetWarning,0824.4,5.00,000.00,021.3,020.7,000.0,029.8,023.1,026.6,0000.0,0002.25,0001.56,0001.35
2024-04-27 20:50:00,SystemResetWarning,0824.4,5.00,000.00,021.3,020.7,000.0,029.8,023.1,026.8,0000.0,0002.23,0001.56,0001.34
2024-04-27 20:51:00,SystemResetWarning,0824.4,5.01,000.00,021.3,020.7,000.0,029.8,023.1,027.1,0000.0,0002.13,0001.53,0001.34
2024-04-27 20:52:00,SystemResetWarning,0824.4,5.01,000.00,021.3,020.7,000.0,029.8,023.2,027.3,0000.0,0002.11,0001.54,0001.35
2024-04-27 20:53:00,SystemResetWarning,0824.4,4.99,000.00,021.3,020.7,000.0,029.8,023.2,027.3,0000.0,0002.13,0001.55,0001.34
2024-04-27 20:54:00,SystemResetWarning,0824.4,4.99,000.00,021.3,020.7,000.0,029.8,023.1,027.2,0000.0,0002.08,0001.52,0001.33
2024-04-27 20:55:00,SystemResetWarning,0824.4,5.00,000.00,021.3,020.7,000.0,029.8,023.1,027.1,0000.0,0002.03,0001.50,0001.32
2024-04-27 20:56:00,SystemResetWarning,0824.4,5.01,000.00,021.3,020.7,000.0,029.8,023.2,027.0,0000.0,0002.05,0001.50,0001.31
2024-04-27 20:57:00,SystemResetWarning,0824.4,5.01,000.00,021.3,020.7,000.0,029.8,023.2,026.6,0000.0,0002.03,0001.48,0001.29
2024-04-27 20:58:00,SystemResetWarning,0824.3,4.99,000.00,021.3,020.7,000.0,029.8,023.2,026.9,0000.0,0001.86,0001.46,0001.28
2024-04-27 20:59:00,SystemResetWarning,0824.4,4.99,000.00,021.3,020.7,000.0,029.8,023.2,026.8,0000.0,0001.84,0001.46,0001.28
